Location: *
(46.1866°S, 178.5290°W)
Time: 21:40:45
(UTC+00:00)

SJ-7 - Pass Details

Date: 19 May 2021
Orbit: 554 x 602 km, 97.7° (Epoch: 12 June)

Event Time Altitude Azimuth Distance (km) Brightness Sun altitude
Rises 05:46:49 0° 168° (SSE) 2,839 7.7 -13.5°
Reaches altitude 10° 05:48:58 10° 168° (SSE) 1,939 6.8 -13.9°
Maximum altitude 05:53:12 85° 256° (WSW) 607 4.5 -14.6°
Drops below altitude 10° 05:57:25 10° 344° (NNW) 1,938 7.5 -15.3°
Sets 05:59:35 0° 344° (NNW) 2,838 8.4 -15.7°
